Left ArrowRight Arrow

31.31129, -92.44514

Hourly Observations for June 16, 2024

Temp ( °F °C ) Dew Point ( °F °C ) Humidity (%) Winds ( mph kmh ) Pressure ( in mb ) Visibility ( mi km ) Precip ( " mm )
12:53 am 00:53 Mostly Clear 81 27.2 73 22.8 77 77 SSE 8 13 29.91 1013 9 14 0.00 0.00
1:53 am 01:53 Clear 78 25.6 73 22.8 85 85 S 3 6 29.90 1013 8 13 0.00 0.00
2:53 am 02:53 Clear 77 25 73 22.8 88 88 Calm 29.90 1013 8 13 0.00 0.00
3:53 am 03:53 Clear 77 25 72 22.2 84 84 Calm 29.90 1013 8 13 0.00 0.00
4:53 am 04:53 Clear 74 23.3 71 21.7 91 91 Calm 29.91 1013 7 11 0.00 0.00
5:53 am 05:53 Clear 74 23.3 71 21.7 91 91 Calm 29.91 1013 7 11 0.00 0.00
6:53 am 06:53 Sunny with Mist and Fog 75 23.9 73 22.8 94 94 SSE 5 7 29.92 1013 4 6 0.00 0.00
7:53 am 07:53 Hazy 81 27.2 75 23.9 82 82 SE 5 7 29.93 1014 6 10 0.00 0.00
8:53 am 08:53 Sunny 85 29.4 74 23.3 70 70 VRB 5 7 29.94 1014 9 14 0.00 0.00
9:53 am 09:53 Sunny 88 31.1 73 22.8 61 61 ESE 9 15 29.93 1014 10 16 0.00 0.00
10:53 am 10:53 Sunny 90 32.2 73 22.8 58 58 E 7 11 29.93 1014 10 16 0.00 0.00
11:53 am 11:53 Mostly Sunny 90 32.2 73 22.8 58 58 SSE 6 9 29.92 1013 10 16 0.00 0.00
12:53 pm 12:53 Mostly Sunny 92 33.3 72 22.2 52 52 ESE 9 15 29.91 1013 10 16 0.00 0.00
1:53 pm 13:53 Mostly Sunny 94 34.4 72 22.2 49 49 S 5 7 29.89 1012 10 16 0.00 0.00
2:53 pm 14:53 Mostly Sunny 93 33.9 72 22.2 51 51 SE 7 11 29.88 1012 10 16 0.00 0.00
3:53 pm 15:53 Mostly Sunny 92 33.3 73 22.8 54 54 SE 6 9 29.88 1012 10 16 0.00 0.00
4:27 pm 16:27 Partly Cloudy with Nearby Thunderstorms 91 32.8 74 23.3 58 58 SE 7 11 29.85 1011 10 16 0.00 0.00
4:41 pm 16:41 Windy with Storms Likely 83 28.3 71 21.7 67 67 S 31 50 29.89 1012 8 13 0.01 0.13
4:59 pm 16:59 Cloudy with Strong Thunderstorms 74 23.3 69 20.6 85 85 WSW 25 41 29.89 1012 2 2 0.06 1.52
5:09 pm 17:09 Cloudy with Strong Thunderstorms 75 23.9 70 21.1 84 84 W 13 20 29.90 1012 2 3 0.13 3.30
5:15 pm 17:15 Cloudy with Nearby Thunderstorms 74 23.3 70 21.1 87 87 S 12 19 29.91 1013 4 6 0.14 3.56
5:45 pm 17:45 Partly Cloudy 74 23.3 72 22.2 94 94 ENE 5 7 29.88 1012 10 16 0.15 3.81
5:53 pm 17:53 Mostly Cloudy 75 23.9 73 22.8 94 94 WSW 3 6 29.89 1012 10 16 0.15 3.81
6:53 pm 18:53 Sunny 77 25 73 22.8 88 88 E 5 7 29.90 1013 10 16 0.01 0.13
7:53 pm 19:53 Sunny 78 25.6 73 22.8 85 85 S 9 15 29.88 1012 10 16 0.00 0.00
8:53 pm 20:53 Clear 75 23.9 73 22.8 94 94 SSE 7 11 29.88 1012 10 16 0.00 0.00
9:53 pm 21:53 Clear 76 24.4 72 22.2 88 88 E 7 11 29.92 1013 10 16 0.00 0.00
10:53 pm 22:53 Mostly Cloudy 75 23.9 72 22.2 90 90 E 6 9 29.93 1014 10 16 0.00 0.00
11:53 pm 23:53 Mostly Cloudy 75 23.9 73 22.8 94 94 SE 8 13 29.92 1013 10 16 0.00 0.00

Powered by Vaisala Xweather